Location: *
(50.8512°N, 5.6907°E)
Time: 09:26:19
(UTC+00:00)

Cosmos 2278 - Pass Details

Date: 09 April 2020
Orbit: 840 x 852 km, 71.1° (Epoch: 24 May)

Event Time Altitude Azimuth Distance (km) Brightness Sun altitude
Rises 20:21:38 0° 332° (NNW) 3,408 8.1 -17.5°
Reaches altitude 10° 20:24:15 10° 340° (NNW) 2,470 7.0 -17.8°
Maximum altitude 20:29:34 40° 49° (NE) 1,220 4.4 -18.5°
Enters shadow 20:31:55 28° 98° (E) 1,544 4.6 -18.7°
